| time (UTC) | temp C | wind direction | speed KPH | gust KPH | rain 1hr cm | rain 24hr cm | rain mn cm | humidity % | barometer mb |
| 20260831151630 | 18 | 245 | 0.0 | 0.0 | 0.00 | 0.23 | 0.23 | 78 | 1003.6 |
| 20260831150631 | 18 | 193 | 0.0 | 3.2 | 0.00 | 0.23 | 0.23 | 74 | 1003.6 |
| 20260831145630 | 19 | 157 | 1.6 | 4.8 | 0.00 | 0.23 | 0.23 | 76 | 1003.5 |
| 20260831144631 | 18 | 202 | 1.6 | 4.8 | 0.00 | 0.23 | 0.23 | 78 | 1003.7 |
| 20260831143633 | 17 | 202 | 3.2 | 9.7 | 0.00 | 0.23 | 0.23 | 79 | 1003.7 |
| 20260831143112 | 17 | 174 | 4.8 | 14.5 | 0.00 | 0.23 | 0.23 | 78 | 1003.6 |
| 20260831141630 | 18 | 173 | 6.4 | 16.1 | 0.00 | 0.23 | 0.23 | 78 | 1003.6 |
| 20260831141103 | 18 | 132 | 4.8 | 12.9 | 0.00 | 0.23 | 0.23 | 75 | 1003.4 |
| 20260831135631 | 19 | 179 | 3.2 | 11.3 | 0.00 | 0.23 | 0.23 | 71 | 1003.4 |
| 20260831135106 | 20 | 153 | 6.4 | 16.1 | 0.00 | 0.23 | 0.23 | 69 | 1003.5 |
| 20260831133630 | 21 | 200 | 6.4 | 14.5 | 0.00 | 0.23 | 0.23 | 67 | 1003.3 |
| 20260831132630 | 20 | 145 | 1.6 | 8.0 | 0.00 | 0.23 | 0.23 | 78 | 1003.4 |
| 20260831131630 | 20 | 275 | 1.6 | 4.8 | 0.00 | 0.23 | 0.23 | 77 | 1003.2 |
| 20260831131549 | 18 | 4 | 3.2 | 6.4 | 0.00 | 0.23 | 0.23 | 81 | 1003.3 |
| 20260831125631 | 18 | 293 | 4.8 | 12.9 | 0.00 | 0.23 | 0.23 | 85 | 1003.4 |
| 20260831124631 | 17 | 334 | 9.7 | 16.1 | 0.00 | 0.25 | 0.23 | 82 | 1003.3 |
| 20260831123630 | 18 | 310 | 12.9 | 17.7 | 0.00 | 0.28 | 0.23 | 78 | 1003.2 |
| 20260831123551 | 18 | 320 | 6.4 | 17.7 | 0.00 | 0.28 | 0.23 | 75 | 1003.1 |
| 20260831121630 | 19 | 351 | 6.4 | 16.1 | 0.00 | 0.28 | 0.23 | 76 | 1003.1 |
| 20260831120631 | 20 | 186 | 6.4 | 14.5 | 0.00 | 0.28 | 0.23 | 72 | 1003.1 |
| 20260831120118 | 20 | 160 | 8.0 | 16.1 | 0.00 | 0.28 | 0.23 | 70 | 1003.0 |
| 20260831114631 | 20 | 205 | 3.2 | 12.9 | 0.00 | 0.28 | 0.23 | 71 | 1003.1 |
| 20260831113630 | 19 | 255 | 3.2 | 12.9 | 0.00 | 0.28 | 0.23 | 70 | 1003.1 |
| 20260831112632 | 18 | 295 | 4.8 | 16.1 | 0.00 | 0.28 | 0.23 | 73 | 1003.0 |
| 20260831111631 | 19 | 204 | 4.8 | 17.7 | 0.00 | 0.28 | 0.23 | 72 | 1003.0 |
| 20260831110631 | 19 | 142 | 4.8 | 16.1 | 0.00 | 0.28 | 0.23 | 72 | 1003.1 |
| 20260831105630 | 20 | 266 | 4.8 | 11.3 | 0.00 | 0.28 | 0.23 | 72 | 1003.0 |
| 20260831105103 | 18 | 237 | 4.8 | 12.9 | 0.00 | 0.28 | 0.23 | 78 | 1003.1 |
| 20260831103632 | 19 | 80 | 0.0 | 0.0 | 0.00 | 0.28 | 0.23 | 84 | 1003.0 |
| 20260831102630 | 17 | 212 | 0.0 | 4.8 | 0.00 | 0.28 | 0.23 | 86 | 1003.1 |
| 20260831101631 | 17 | 247 | 1.6 | 9.7 | 0.00 | 0.28 | 0.23 | 85 | 1003.1 |
| 20260831100631 | 17 | 286 | 1.6 | 8.0 | 0.00 | 0.28 | 0.23 | 81 | 1003.2 |
| 20260831095630 | 16 | 230 | 1.6 | 8.0 | 0.00 | 0.28 | 0.23 | 86 | 1003.1 |
| 20260831094630 | 16 | 190 | 1.6 | 8.0 | 0.00 | 0.28 | 0.23 | 88 | 1003.1 |
| 20260831093630 | 16 | 266 | 4.8 | 12.9 | 0.00 | 0.28 | 0.23 | 88 | 1003.1 |
| 20260831092631 | 16 | 241 | 6.4 | 16.1 | 0.00 | 0.28 | 0.23 | 89 | 1003.2 |
| 20260831091630 | 16 | 217 | 6.4 | 16.1 | 0.00 | 0.28 | 0.23 | 88 | 1003.1 |
| 20260831090631 | 16 | 189 | 6.4 | 14.5 | 0.00 | 0.28 | 0.23 | 90 | 1003.2 |
| 20260831085629 | 15 | 222 | 3.2 | 9.7 | 0.00 | 0.28 | 0.23 | 93 | 1003.2 |
| 20260831084631 | 15 | 123 | 1.6 | 11.3 | 0.00 | 0.28 | 0.23 | 93 | 1003.1 |
| 20260831083631 | 15 | 166 | 1.6 | 6.4 | 0.00 | 0.28 | 0.23 | 93 | 1003.2 |
| 20260831082626 | 15 | 183 | 3.2 | 6.4 | 0.00 | 0.28 | 0.23 | 93 | 1003.2 |
| 20260831081626 | 15 | 200 | 0.0 | 6.4 | 0.00 | 0.28 | 0.23 | 94 | 1003.1 |
| 20260831081111 | 15 | 112 | 0.0 | 0.0 | 0.00 | 0.28 | 0.23 | 94 | 1003.1 |
| 20260831075628 | 15 | 112 | 0.0 | 0.0 | 0.00 | 0.28 | 0.23 | 94 | 1003.1 |
| 20260831074626 | 15 | 112 | 0.0 | 0.0 | 0.00 | 0.28 | 0.23 | 94 | 1003.1 |
| 20260831073625 | 15 | 112 | 0.0 | 0.0 | 0.00 | 0.28 | 0.23 | 94 | 1003.0 |
| 20260831073117 | 15 | 112 | 0.0 | 0.0 | 0.00 | 0.28 | 0.23 | 94 | 1002.9 |
| 20260831071626 | 15 | 112 | 0.0 | 0.0 | 0.00 | 0.28 | 0.23 | 94 | 1003.0 |
| 20260831070626 | 15 | 112 | 0.0 | 0.0 | 0.00 | 0.30 | 0.23 | 94 | 1002.8 |
| 20260831065626 | 15 | 112 | 0.0 | 0.0 | 0.00 | 0.30 | 0.23 | 95 | 1002.9 |
| 20260831065101 | 14 | 112 | 0.0 | 0.0 | 0.00 | 0.30 | 0.23 | 95 | 1002.8 |
| 20260831063623 | 14 | 112 | 0.0 | 0.0 | 0.00 | 0.30 | 0.23 | 95 | 1002.8 |
| 20260831063105 | 14 | 138 | 0.0 | 0.0 | 0.00 | 0.33 | 0.23 | 95 | 1002.8 |
| 20260831062549 | 13 | 209 | 0.0 | 0.0 | 0.00 | 0.33 | 0.23 | 95 | 1002.7 |
| 20260831060619 | 13 | 209 | 0.0 | 0.0 | 0.00 | 0.33 | 0.23 | 95 | 1002.8 |
| 20260831060104 | 13 | 209 | 0.0 | 0.0 | 0.00 | 0.33 | 0.23 | 95 | 1002.8 |
| 20260831055053 | 13 | 209 | 0.0 | 0.0 | 0.00 | 0.33 | 0.23 | 95 | 1002.6 |
| 20260831053616 | 13 | 209 | 0.0 | 0.0 | 0.00 | 0.33 | 0.23 | 94 | 1002.6 |
| 20260831052616 | 13 | 209 | 0.0 | 0.0 | 0.00 | 0.33 | 0.23 | 94 | 1002.6 |
| 20260831051616 | 13 | 209 | 0.0 | 0.0 | 0.00 | 0.33 | 0.23 | 94 | 1002.7 |
| 20260831050616 | 13 | 209 | 0.0 | 0.0 | 0.00 | 0.33 | 0.23 | 94 | 1002.8 |
| 20260831045615 | 13 | 209 | 0.0 | 0.0 | 0.00 | 0.33 | 0.23 | 94 | 1002.7 |
| 20260831045046 | 12 | 209 | 0.0 | 0.0 | 0.00 | 0.33 | 0.23 | 94 | 1002.7 |
| 20260831043609 | 12 | 209 | 0.0 | 0.0 | 0.00 | 0.33 | 0.23 | 93 | 1002.6 |
| 20260831043059 | 12 | 209 | 0.0 | 0.0 | 0.00 | 0.33 | 0.23 | 93 | 1002.5 |
| 20260831042047 | 12 | 209 | 0.0 | 0.0 | 0.00 | 0.33 | 0.23 | 93 | 1002.5 |
| 20260831040609 | 12 | 209 | 0.0 | 0.0 | 0.00 | 0.33 | 0.23 | 93 | 1002.4 |
| 20260831035610 | 12 | 209 | 0.0 | 0.0 | 0.00 | 0.33 | 0.23 | 93 | 1002.5 |
| 20260831034610 | 12 | 209 | 0.0 | 0.0 | 0.00 | 0.33 | 0.23 | 93 | 1002.5 |
| 20260831033609 | 12 | 209 | 0.0 | 0.0 | 0.00 | 0.33 | 0.23 | 93 | 1002.5 |
| 20260831033044 | 12 | 209 | 0.0 | 0.0 | 0.00 | 0.33 | 0.23 | 93 | 1002.5 |
| 20260831032052 | 12 | 209 | 0.0 | 0.0 | 0.00 | 0.33 | 0.23 | 93 | 1002.5 |
| 20260831030608 | 12 | 209 | 0.0 | 0.0 | 0.00 | 0.33 | 0.23 | 93 | 1002.4 |
| 20260831025607 | 12 | 209 | 0.0 | 0.0 | 0.00 | 0.33 | 0.23 | 93 | 1002.4 |
| 20260831025055 | 12 | 209 | 0.0 | 0.0 | 0.00 | 0.33 | 0.23 | 93 | 1002.4 |
| 20260831023609 | 12 | 209 | 0.0 | 0.0 | 0.00 | 0.33 | 0.23 | 93 | 1002.4 |
| 20260831023043 | 12 | 209 | 0.0 | 0.0 | 0.00 | 0.33 | 0.23 | 93 | 1002.5 |
| 20260831021607 | 12 | 209 | 0.0 | 0.0 | 0.00 | 0.33 | 0.23 | 93 | 1002.4 |
| 20260831021053 | 12 | 209 | 0.0 | 0.0 | 0.00 | 0.33 | 0.23 | 93 | 1002.5 |
| 20260831015605 | 13 | 209 | 0.0 | 0.0 | 0.00 | 0.33 | 0.23 | 93 | 1002.4 |
| 20260831014605 | 13 | 209 | 0.0 | 0.0 | 0.00 | 0.33 | 0.23 | 93 | 1002.6 |
| 20260831014046 | 13 | 209 | 0.0 | 0.0 | 0.03 | 0.33 | 0.23 | 93 | 1002.5 |
| 20260831013044 | 13 | 209 | 0.0 | 0.0 | 0.03 | 0.33 | 0.23 | 93 | 1002.4 |
| 20260831011605 | 13 | 209 | 0.0 | 3.2 | 0.05 | 0.33 | 0.23 | 93 | 1002.4 |
| 20260831010603 | 13 | 225 | 1.6 | 6.4 | 0.15 | 0.33 | 0.23 | 93 | 1002.5 |
| 20260831005604 | 13 | 230 | 1.6 | 9.7 | 0.18 | 0.33 | 0.23 | 93 | 1002.3 |
| 20260831004604 | 13 | 243 | 4.8 | 11.3 | 0.23 | 0.33 | 0.23 | 93 | 1002.3 |
| 20260831003603 | 13 | 66 | 4.8 | 11.3 | 0.20 | 0.30 | 0.23 | 93 | 1002.3 |
| 20260831002603 | 13 | 50 | 0.0 | 3.2 | 0.23 | 0.33 | 0.23 | 93 | 1002.6 |
| 20260831002206 | 13 | 266 | 0.0 | 0.0 | 0.20 | 0.30 | 0.20 | 93 | 1002.9 |
| 20260830235603 | 13 | 316 | 0.0 | 0.0 | 0.05 | 0.20 | 0.05 | 93 | 1002.9 |
| 20260830234602 | 13 | 316 | 0.0 | 0.0 | 0.03 | 0.15 | 0.03 | 93 | 1002.8 |
| 20260830233603 | 13 | 316 | 0.0 | 0.0 | 0.03 | 0.15 | 0.03 | 92 | 1002.8 |
| 20260830232603 | 13 | 316 | 0.0 | 0.0 | 0.00 | 0.15 | 0.00 | 92 | 1002.7 |
| 20260830231604 | 13 | 316 | 0.0 | 0.0 | 0.00 | 0.15 | 0.00 | 92 | 1002.7 |
| 20260830230604 | 13 | 316 | 0.0 | 0.0 | 0.00 | 0.15 | 0.00 | 92 | 1002.7 |
| 20260830225603 | 13 | 342 | 0.0 | 0.0 | 0.00 | 0.15 | 0.00 | 92 | 1002.7 |
| 20260830224605 | 13 | 180 | 0.0 | 0.0 | 0.00 | 0.15 | 0.00 | 92 | 1002.7 |
| 20260830223604 | 13 | 180 | 0.0 | 0.0 | 0.00 | 0.15 | 0.00 | 91 | 1002.7 |
| 20260830222603 | 13 | 180 | 0.0 | 0.0 | 0.00 | 0.15 | 0.00 | 91 | 1002.8 |
| 20260830221603 | 13 | 180 | 0.0 | 0.0 | 0.00 | 0.15 | 0.00 | 91 | 1002.7 |
| 20260830220603 | 13 | 180 | 0.0 | 0.0 | 0.00 | 0.15 | 0.00 | 90 | 1002.5 |
| 20260830215603 | 13 | 180 | 0.0 | 0.0 | 0.00 | 0.15 | 0.15 | 90 | 1002.6 |
| 20260830214602 | 13 | 180 | 0.0 | 0.0 | 0.00 | 0.15 | 0.15 | 90 | 1002.6 |
| 20260830214516 | 13 | 180 | 0.0 | 0.0 | 0.00 | 0.15 | 0.15 | 90 | 1002.6 |
| 20260830212602 | 13 | 180 | 0.0 | 0.0 | 0.00 | 0.15 | 0.15 | 90 | 1002.6 |
| 20260830211606 | 13 | 180 | 0.0 | 0.0 | 0.00 | 0.15 | 0.15 | 90 | 1002.5 |
| 20260830210603 | 14 | 180 | 0.0 | 0.0 | 0.00 | 0.15 | 0.15 | 90 | 1002.5 |
| 20260830205604 | 14 | 180 | 0.0 | 0.0 | 0.00 | 0.15 | 0.15 | 90 | 1002.6 |
| 20260830204603 | 14 | 180 | 0.0 | 0.0 | 0.00 | 0.15 | 0.15 | 90 | 1002.6 |
| 20260830203603 | 14 | 180 | 0.0 | 0.0 | 0.00 | 0.15 | 0.15 | 89 | 1002.5 |
| 20260830202603 | 14 | 180 | 0.0 | 0.0 | 0.00 | 0.15 | 0.15 | 89 | 1002.5 |
| 20260830201602 | 14 | 180 | 0.0 | 0.0 | 0.00 | 0.15 | 0.15 | 89 | 1002.5 |
| 20260830200603 | 15 | 180 | 0.0 | 0.0 | 0.00 | 0.15 | 0.15 | 89 | 1002.5 |
| 20260830195603 | 15 | 180 | 0.0 | 0.0 | 0.00 | 0.15 | 0.15 | 89 | 1002.6 |
| 20260830194606 | 15 | 180 | 0.0 | 0.0 | 0.00 | 0.15 | 0.15 | 89 | 1002.6 |
| 20260830193603 | 15 | 180 | 0.0 | 0.0 | 0.00 | 0.15 | 0.15 | 88 | 1002.6 |
| 20260830192602 | 15 | 180 | 0.0 | 0.0 | 0.00 | 0.15 | 0.15 | 88 | 1002.6 |
| 20260830191603 | 15 | 180 | 0.0 | 0.0 | 0.00 | 0.15 | 0.15 | 88 | 1002.6 |
| 20260830190602 | 15 | 180 | 0.0 | 0.0 | 0.00 | 0.15 | 0.15 | 87 | 1002.5 |
| 20260830185603 | 15 | 180 | 0.0 | 0.0 | 0.00 | 0.15 | 0.15 | 87 | 1002.6 |
| 20260830185046 | 15 | 180 | 0.0 | 1.6 | 0.00 | 0.15 | 0.15 | 86 | 1002.5 |
| 20260830183602 | 16 | 180 | 1.6 | 4.8 | 0.00 | 0.15 | 0.15 | 85 | 1002.5 |
| 20260830182602 | 16 | 156 | 0.0 | 3.2 | 0.00 | 0.15 | 0.15 | 85 | 1002.5 |
| 20260830181604 | 16 | 156 | 1.6 | 6.4 | 0.00 | 0.15 | 0.15 | 85 | 1002.4 |
| 20260830181525 | 16 | 155 | 1.6 | 4.8 | 0.00 | 0.15 | 0.15 | 85 | 1002.3 |
| 20260830175603 | 16 | 199 | 1.6 | 6.4 | 0.00 | 0.15 | 0.15 | 85 | 1002.3 |
| 20260830174603 | 16 | 132 | 0.0 | 0.0 | 0.00 | 0.15 | 0.15 | 85 | 1002.2 |
| 20260830173602 | 16 | 132 | 0.0 | 0.0 | 0.00 | 0.15 | 0.15 | 86 | 1002.2 |
| 20260830172603 | 16 | 132 | 0.0 | 0.0 | 0.00 | 0.15 | 0.15 | 86 | 1002.2 |
| 20260830172510 | 16 | 132 | 0.0 | 0.0 | 0.00 | 0.15 | 0.15 | 87 | 1002.1 |
| 20260830170602 | 16 | 132 | 0.0 | 0.0 | 0.00 | 0.15 | 0.15 | 87 | 1002.1 |
| 20260830165603 | 16 | 132 | 0.0 | 0.0 | 0.00 | 0.15 | 0.15 | 87 | 1002.0 |
| 20260830164603 | 16 | 132 | 0.0 | 0.0 | 0.00 | 0.15 | 0.15 | 86 | 1002.0 |
| 20260830163604 | 16 | 132 | 0.0 | 0.0 | 0.00 | 0.15 | 0.15 | 85 | 1002.0 |
| 20260830162602 | 16 | 132 | 1.6 | 4.8 | 0.00 | 0.15 | 0.15 | 83 | 1002.0 |
| 20260830161613 | 16 | 141 | 1.6 | 4.8 | 0.00 | 0.15 | 0.15 | 83 | 1001.9 |
| 20260830161025 | 16 | 193 | 3.2 | 6.4 | 0.00 | 0.15 | 0.15 | 83 | 1002.1 |
| 20260830155542 | 16 | 181 | 3.2 | 8.0 | 0.00 | 0.15 | 0.15 | 82 | 1002.1 |
| 20260830154539 | 16 | 185 | 3.2 | 9.7 | 0.00 | 0.15 | 0.15 | 82 | 1002.0 |
| 20260830153544 | 16 | 100 | 4.8 | 16.1 | 0.00 | 0.15 | 0.15 | 81 | 1001.9 |
| 20260830152538 | 17 | 138 | 6.4 | 16.1 | 0.00 | 0.15 | 0.15 | 79 | 1002.0 |